Location: Forli
(44.2227°N, 12.0407°E)
Time: 18:04:03
(UTC+01:00)

ISS - Pass Details

Date: 20 February 2026
Orbit: 416 x 427 km, 51.6° (Epoch: 6 March)

Event Time Altitude Azimuth Distance (km) Brightness Sun altitude
Exits shadow 04:57:54 30° 26° (NNE) 786 -2.1 -23.3°
Drops below altitude 10° 04:59:57 10° 51° (NE) 1,496 -0.2 -22.9°
Sets 05:02:07 0° 58° (ENE) 2,360 1.1 -22.5°
